Starlink 1762

operational
NORAD ID: 46342 Int'l Des: 2020-062 Owner: SPXS Country: US Constellation: starlink
LEOCIRCULARSTARLINK_TYPE

Starlink 1762について

説明を読み込み中...

リアルタイム位置

3D地球を読み込み中...

次回通過

高度履歴

Altitude vs Time

uPlot chart will show altitude changes over time

軌道要素

1 46342U 20062T 25257.49586451 .00000418 00000-0 46980-4 0 9996
2 46342 53.0555 87.5833 0001558 93.1074 267.0094 15.06391444277754
Epoch: Sep 14, 2025 • Age: 20 hours

現在のステータス

高度 547.0 km
速度 7.59 km/s
衛星直下点 16.32°N, 141°E
打ち上げ日 Sep 3, 2020
運用期間 5 years
タイプ internet

技術仕様

分類 Payload
質量 260.00 kg
乾燥質量 248.00 kg
総質量 260.00 kg
長さ 0.20 m
直径 2.80 m
スパン 9.00 m
形状 Box + pan
製造者 SPXS
バスタイプ Starlink
フェーズステータス In Orbit
所有者/国 SPXS/US

大規模コンステレーション

Loading constellations...